Previsão horária em Juliopol

Hoje, 24 Junho, Quinta-feira

Tempo Temperatura Precipitação Vento Pressão Humidade
00:00 +20°C° 0 mm 2 m/s 745 mmHg 87%
01:00 +20°C° 0 mm 2 m/s 745 mmHg 87%
02:00 +20°C° 0 mm 2 m/s 745 mmHg 89%
03:00 +19°C° 0 mm 2 m/s 744 mmHg 91%
04:00 +19°C° 0 mm 3 m/s 744 mmHg 93%
05:00 +20°C° 1 mm 3 m/s 744 mmHg 92%
06:00 +21°C° 1 mm 3 m/s 744 mmHg 91%
07:00 +21°C° 1 mm 3 m/s 744 mmHg 90%
08:00 +22°C° 1.4 mm 3 m/s 744 mmHg 88%
09:00 +23°C° 1.4 mm 4 m/s 744 mmHg 87%
10:00 +23°C° 1.4 mm 4 m/s 744 mmHg 86%
11:00 +27°C° 0.3 mm 4 m/s 743 mmHg 77%
12:00 +29°C° 0.3 mm 4 m/s 743 mmHg 68%
13:00 +32°C° 0.3 mm 4 m/s 742 mmHg 59%
14:00 +32°C° 0.4 mm 4 m/s 742 mmHg 58%
15:00 +32°C° 0.4 mm 4 m/s 741 mmHg 58%
16:00 +32°C° 0.4 mm 4 m/s 741 mmHg 58%
17:00 +28°C° 1.6 mm 4 m/s 741 mmHg 68%
18:00 +26°C° 1.6 mm 4 m/s 742 mmHg 78%
19:00 +22°C° 1.6 mm 4 m/s 742 mmHg 88%
20:00 +21°C° 0.1 mm 4 m/s 742 mmHg 90%
21:00 +20°C° 0.1 mm 3 m/s 742 mmHg 92%
22:00 +19°C° 0.1 mm 3 m/s 742 mmHg 94%
23:00 +18°C° 0.5 mm 3 m/s 742 mmHg 94%

Amanhã, 25 Junho, Sexta-feira

Tempo Temperatura Precipitação Vento Pressão Humidade
00:00 +18°C° 0.5 mm 2 m/s 742 mmHg 95%
01:00 +17°C° 0.5 mm 2 m/s 742 mmHg 95%
02:00 +17°C° 0.2 mm 3 m/s 742 mmHg 96%
03:00 +16°C° 0.2 mm 3 m/s 742 mmHg 96%
04:00 +15°C° 0.2 mm 4 m/s 742 mmHg 96%
05:00 +15°C° 0.1 mm 4 m/s 742 mmHg 95%
06:00 +16°C° 0.1 mm 3 m/s 743 mmHg 94%
07:00 +16°C° 0.1 mm 3 m/s 743 mmHg 93%
08:00 +16°C° 0 mm 3 m/s 743 mmHg 91%
09:00 +17°C° 0 mm 4 m/s 743 mmHg 90%
10:00 +17°C° 0 mm 4 m/s 744 mmHg 89%
11:00 +17°C° 0 mm 4 m/s 744 mmHg 86%
12:00 +18°C° 0 mm 4 m/s 744 mmHg 83%
13:00 +18°C° 0 mm 4 m/s 744 mmHg 80%
14:00 +19°C° 0 mm 4 m/s 744 mmHg 76%
15:00 +20°C° 0 mm 4 m/s 744 mmHg 71%
16:00 +21°C° 0 mm 4 m/s 744 mmHg 67%
17:00 +21°C° 0 mm 3 m/s 744 mmHg 70%
18:00 +20°C° 0 mm 2 m/s 743 mmHg 72%
19:00 +19°C° 0 mm 2 m/s 743 mmHg 75%
20:00 +18°C° 0 mm 2 m/s 744 mmHg 79%
21:00 +17°C° 0 mm 2 m/s 744 mmHg 83%
22:00 +16°C° 0 mm 2 m/s 744 mmHg 87%
23:00 +16°C° 0 mm 2 m/s 745 mmHg 89%

Depois de amanhã, 26 Junho, Sábado

Tempo Temperatura Precipitação Vento Pressão Humidade
00:00 +15°C° 0 mm 2 m/s 745 mmHg 91%
01:00 +15°C° 0 mm 2 m/s 745 mmHg 93%
02:00 +15°C° 0 mm 2 m/s 745 mmHg 93%
03:00 +14°C° 0 mm 1 m/s 745 mmHg 93%
04:00 +14°C° 0 mm 1 m/s 745 mmHg 94%
05:00 +16°C° 0 mm 1 m/s 745 mmHg 88%
06:00 +18°C° 0 mm 1 m/s 746 mmHg 82%
07:00 +20°C° 0 mm 1 m/s 746 mmHg 76%
08:00 +21°C° 0 mm 1 m/s 746 mmHg 70%
09:00 +22°C° 0 mm 1 m/s 746 mmHg 65%
10:00 +24°C° 0 mm 1 m/s 746 mmHg 59%
11:00 +24°C° 0 mm 1 m/s 746 mmHg 57%
12:00 +24°C° 0 mm 1 m/s 745 mmHg 55%
13:00 +25°C° 0 mm 1 m/s 745 mmHg 53%
14:00 +25°C° 0 mm 1 m/s 745 mmHg 53%
15:00 +25°C° 0 mm 1 m/s 745 mmHg 54%
16:00 +25°C° 0 mm 1 m/s 745 mmHg 55%
17:00 +24°C° 0 mm 2 m/s 745 mmHg 59%
18:00 +23°C° 0 mm 2 m/s 745 mmHg 64%
19:00 +21°C° 0 mm 2 m/s 745 mmHg 68%
20:00 +20°C° 0 mm 2 m/s 745 mmHg 69%
21:00 +21°C° 0 mm 1 m/s 745 mmHg 70%
22:00 +20°C° 0 mm 1 m/s 745 mmHg 71%
23:00 +19°C° 0 mm 1 m/s 745 mmHg 72%

27 Junho, Domingo

Tempo Temperatura Precipitação Vento Pressão Humidade
00:00 +19°C° 0 mm 1 m/s 745 mmHg 73%
01:00 +18°C° 0 mm 1 m/s 745 mmHg 74%
02:00 +18°C° 0 mm 1 m/s 745 mmHg 76%
03:00 +16°C° 0 mm 1 m/s 745 mmHg 78%
04:00 +16°C° 0 mm 1 m/s 745 mmHg 80%
05:00 +19°C° 0 mm 1 m/s 745 mmHg 75%
06:00 +20°C° 0 mm 1 m/s 746 mmHg 70%
07:00 +20°C° 0 mm 0 m/s 746 mmHg 65%
08:00 +23°C° 0 mm 1 m/s 746 mmHg 60%
09:00 +24°C° 0 mm 1 m/s 745 mmHg 56%
10:00 +26°C° 0 mm 1 m/s 745 mmHg 51%
11:00 +26°C° 0 mm 1 m/s 745 mmHg 49%
12:00 +27°C° 0 mm 1 m/s 745 mmHg 47%
13:00 +28°C° 0 mm 1 m/s 745 mmHg 45%
14:00 +27°C° 0 mm 1 m/s 745 mmHg 48%
15:00 +27°C° 0 mm 2 m/s 745 mmHg 51%
16:00 +26°C° 0 mm 2 m/s 745 mmHg 54%
17:00 +25°C° 0 mm 2 m/s 745 mmHg 59%
18:00 +25°C° 0 mm 2 m/s 745 mmHg 64%
19:00 +24°C° 0 mm 2 m/s 745 mmHg 69%
20:00 +23°C° 0 mm 2 m/s 745 mmHg 70%
21:00 +20°C° 0 mm 2 m/s 745 mmHg 72%
22:00 +19°C° 0 mm 2 m/s 745 mmHg 73%
23:00 +19°C° 0 mm 2 m/s 745 mmHg 74%

28 Junho, Segunda-feira

Tempo Temperatura Precipitação Vento Pressão Humidade
00:00 +19°C° 0 mm 2 m/s 745 mmHg 75%
01:00 +18°C° 0 mm 2 m/s 745 mmHg 76%
02:00 +18°C° 0 mm 2 m/s 745 mmHg 77%
03:00 +18°C° 0 mm 2 m/s 745 mmHg 78%
04:00 +17°C° 0 mm 2 m/s 745 mmHg 80%
05:00 +19°C° 0 mm 3 m/s 745 mmHg 75%
06:00 +21°C° 0 mm 3 m/s 745 mmHg 70%
07:00 +22°C° 0 mm 3 m/s 745 mmHg 65%
08:00 +25°C° 0 mm 3 m/s 745 mmHg 60%
09:00 +26°C° 0 mm 3 m/s 745 mmHg 54%
10:00 +28°C° 0 mm 3 m/s 745 mmHg 48%
11:00 +28°C° 0 mm 3 m/s 745 mmHg 47%
12:00 +29°C° 0 mm 3 m/s 745 mmHg 45%
13:00 +30°C° 0 mm 3 m/s 744 mmHg 43%
14:00 +30°C° 0 mm 3 m/s 744 mmHg 43%
15:00 +30°C° 0 mm 2 m/s 744 mmHg 44%
16:00 +30°C° 0 mm 2 m/s 744 mmHg 44%
17:00 +29°C° 0 mm 2 m/s 744 mmHg 51%
18:00 +27°C° 0 mm 2 m/s 744 mmHg 59%
19:00 +26°C° 0 mm 3 m/s 744 mmHg 66%
20:00 +25°C° 0 mm 3 m/s 744 mmHg 68%
21:00 +24°C° 0 mm 3 m/s 744 mmHg 70%
22:00 +21°C° 0 mm 3 m/s 744 mmHg 72%
23:00 +21°C° 0 mm 3 m/s 744 mmHg 72%

29 Junho, Terça-feira

Tempo Temperatura Precipitação Vento Pressão Humidade
00:00 +20°C° 0 mm 3 m/s 743 mmHg 73%
01:00 +20°C° 0 mm 3 m/s 743 mmHg 74%
02:00 +20°C° 0 mm 3 m/s 743 mmHg 75%
03:00 +19°C° 0 mm 3 m/s 743 mmHg 76%
04:00 +19°C° 0 mm 3 m/s 743 mmHg 77%
05:00 +21°C° 0 mm 3 m/s 743 mmHg 72%
06:00 +22°C° 0 mm 4 m/s 743 mmHg 68%
07:00 +25°C° 0 mm 4 m/s 744 mmHg 63%
08:00 +27°C° 0 mm 4 m/s 744 mmHg 59%
09:00 +28°C° 0 mm 4 m/s 744 mmHg 54%
10:00 +30°C° 0 mm 4 m/s 744 mmHg 50%
11:00 +32°C° 0 mm 4 m/s 743 mmHg 47%
12:00 +32°C° 0 mm 4 m/s 743 mmHg 45%
13:00 +33°C° 0 mm 4 m/s 743 mmHg 43%
14:00 +33°C° 0 mm 3 m/s 743 mmHg 44%
15:00 +33°C° 0 mm 3 m/s 743 mmHg 44%
16:00 +33°C° 0 mm 3 m/s 743 mmHg 45%
17:00 +31°C° 0 mm 3 m/s 743 mmHg 51%
18:00 +29°C° 0 mm 3 m/s 743 mmHg 58%
19:00 +28°C° 0 mm 3 m/s 742 mmHg 64%
20:00 +27°C° 0.1 mm 3 m/s 743 mmHg 66%
21:00 +26°C° 0.1 mm 3 m/s 743 mmHg 67%
22:00 +25°C° 0.1 mm 3 m/s 743 mmHg 69%
23:00 +24°C° 0 mm 3 m/s 743 mmHg 72%
Mostrar mais

Necessitamos do seu Consentimento

A Meteoprog e os seus Fornecedores de Serviços podem armazenar e aceder a dados pessoais como cookies, identificadores do dispositivo ou outras tecnologias semelhantes existentes no seu dispositivo e processar estes dados para personalizar conteúdos e anúncios, assim como funcionalidades nas redes sociais e análise de tráfego.

  • Armazenar e/ou aceder a informações no seu dispositivo

    Os cookies, identificadores do dispositivo ou outras informações podem ser armazenados ou acedidos no seu dispositivo, para os fins acima indicados.

  • Anúncios e conteúdos personalizados, medição de anúncios e conteúdos, dados sobre o público-alvo e desenvolvimento de produtos

    Os anúncios e os conteúdos podem ser personalizados com base num perfil. Podem ser adicionados dados adicionais para uma maior personalização dos anúncios e dos conteúdos. A eficácia dos anúncios e dos conteúdos pode ser medida. Podem ser obtidas informações sobre o público que visualizou os anúncios e os conteúdos. Estes dados podem ser usados para desenvolver ou melhorar sistemas, softwares ou a experiência do utilizador.

Ao clicar em "Eu concordo”, permitirá o uso de cookies, identificadores do dispositivo e web beacons mencionados ou outras tecnologias semelhantes. As configurações do navegador do seu dispositivo podem ser alteradas.

Para certos fins, podem ser invocados interesses legítimos ao invés de consentimento. Pode ler mais informação sobre este assunto na nossa Política de Privacidade e Cookies.